Weather History for PADQ - October, 2012

Change the Weather History Date:

Thursday, October 4, 2012

  Actual Average Record
Temperature  
Mean Temperature 52 °F 44 °F  
Max Temperature 55 °F 50 °F 59 °F (1967)
Min Temperature 48 °F 38 °F 29 °F (1970)
Degree Days  
Heating Degree Days 13 21  
Month to date heating degree days 73 83  
Since 1 July heating degree days 1303 1181  
Cooling Degree Days 0    
Month to date cooling degree days 0  
Year to date cooling degree days 0  
Moisture  
Dew Point 45 °F    
Average Humidity 0    
Maximum Humidity 0    
Minimum Humidity 0    
Precipitation  
Precipitation T in 0.28 in 2.83 in (2000)
Month to date precipitation 1.43 1.13  
Year to date precipitation 44.48 55.27  
Snow  
Snow 0.00 in 0.00 in 0.20 in (1981)
Month to date snowfall 0.0 0.0  
Since 1 July snowfall T 0.0  
Since 1 September snowfall 0.0 0.0  
Snow Depth 0.00 in    
Sea Level Pressure  
Sea Level Pressure 29.98 in    
Wind  
Wind Speed 9 mph (SSE)    
Max Wind Speed 16 mph    
Max Gust Speed 21 mph    
Visibility 9 miles    
Events Rain    
T = Trace of Precipitation, MM = Missing Value Source: NWS Daily Summary

Daily Weather History Graph

Daily Weather History Graph

Search for Another Location

Airport or City:

Trip Planner

Search our weather history database for the weather conditions in past years. The results will help you decide how hot, cold, wet, or windy it might be!

Date:

Astronomy

Oct. 04, 2012 Rise Set
Actual Time 8:22 AM AKDT 7:33 PM AKDT
Civil Twilight 7:43 AM AKDT 8:12 PM AKDT
Nautical Twilight 6:57 AM AKDT 8:57 PM AKDT
Astronomical Twilight 6:10 AM AKDT 9:44 PM AKDT
Moon 9:15 PM AKDT (10/4) 1:49 PM AKDT (10/4)
Length of Visible Light 12h 29m
Length of Day
11h 11m
Waning Gibbous, 81% of the Moon is Illuminated
Oct 4
Waning Gibbous
Oct 7
Last Quarter
Oct 15
New
Oct 21
First Quarter
Oct 29
Full

Hourly Weather History & Observations

Time (AKDT) Temp. Windchill Dew Point Humidity Pressure Visibility Wind Dir Wind Speed Gust Speed Precip Events Conditions
12:00 AM 51.8 °F - 48.2 °F 88% 29.90 in 10.0 mi South 12.7 mph 18.4 mph N/A   Mostly Cloudy
12:53 AM 52.0 °F - 46.0 °F 80% 29.90 in 10.0 mi SE 3.5 mph - N/A   Overcast
1:53 AM 51.1 °F - 46.0 °F 83% 29.91 in 10.0 mi South 6.9 mph - N/A   Overcast
2:53 AM 50.0 °F - 46.0 °F 86% 29.92 in 10.0 mi Calm Calm - N/A   Overcast
3:39 AM 48.2 °F - 46.4 °F 93% 29.90 in 10.0 mi SE 8.1 mph - N/A   Overcast
3:53 AM 48.9 °F - 46.9 °F 93% 29.90 in 10.0 mi SE 11.5 mph - N/A   Overcast
4:11 AM 48.2 °F - 46.4 °F 93% 29.90 in 7.0 mi ESE 8.1 mph - N/A   Overcast
4:26 AM 48.2 °F - 46.4 °F 93% 29.89 in 4.0 mi ENE 5.8 mph - 0.00 in Rain Light Rain
4:53 AM 48.0 °F - 46.9 °F 96% 29.89 in 7.0 mi East 6.9 mph - 0.00 in Rain Light Rain
5:50 AM 50.0 °F - 48.2 °F 94% 29.88 in 7.0 mi SE 12.7 mph - 0.00 in Rain Light Rain
5:53 AM 50.0 °F - 48.0 °F 93% 29.88 in 7.0 mi SE 13.8 mph - 0.00 in Rain Light Rain
6:53 AM 50.0 °F - 48.0 °F 93% 29.88 in 6.0 mi SE 11.5 mph - 0.00 in Rain Light Rain
7:53 AM 50.0 °F - 46.9 °F 89% 29.88 in 10.0 mi SE 10.4 mph - 0.00 in Rain Light Rain
8:53 AM 50.0 °F - 46.9 °F 89% 29.90 in 10.0 mi SE 10.4 mph - 0.00 in   Overcast
9:53 AM 50.0 °F - 48.0 °F 93% 29.93 in 10.0 mi SSE 9.2 mph - N/A   Overcast
10:53 AM 51.1 °F - 48.9 °F 92% 29.94 in 10.0 mi SE 9.2 mph - 0.00 in   Mostly Cloudy
11:53 AM 52.0 °F - 48.0 °F 86% 29.96 in 10.0 mi SSE 10.4 mph - N/A   Mostly Cloudy
12:53 PM 53.1 °F - 45.0 °F 74% 29.99 in 10.0 mi South 12.7 mph - N/A   Mostly Cloudy
1:53 PM 54.0 °F - 44.1 °F 69% 30.01 in 10.0 mi South 12.7 mph - N/A   Mostly Cloudy
2:53 PM 53.1 °F - 44.1 °F 71% 30.03 in 10.0 mi South 9.2 mph - N/A   Mostly Cloudy
3:53 PM 53.1 °F - 43.0 °F 69% 30.04 in 10.0 mi South 9.2 mph - N/A   Mostly Cloudy
4:53 PM 53.1 °F - 43.0 °F 69% 30.05 in 10.0 mi South 12.7 mph - N/A   Mostly Cloudy
5:53 PM 52.0 °F - 43.0 °F 71% 30.06 in 10.0 mi South 10.4 mph - N/A   Mostly Cloudy
6:53 PM 51.1 °F - 42.1 °F 71% 30.08 in 10.0 mi Variable 4.6 mph - N/A   Overcast
7:53 PM 48.9 °F - 41.0 °F 74% 30.10 in 10.0 mi South 9.2 mph - N/A   Overcast
8:53 PM 46.9 °F - 39.9 °F 77% 30.12 in 10.0 mi SW 6.9 mph - N/A   Overcast
9:53 PM 46.0 °F 43.9 °F 39.0 °F 76% 30.15 in 10.0 mi SW 4.6 mph - N/A   Mostly Cloudy
10:53 PM 46.0 °F 43.1 °F 39.0 °F 76% 30.17 in 10.0 mi SSW 5.8 mph - N/A   Overcast
11:53 PM 46.9 °F - 37.9 °F 71% 30.19 in 10.0 mi Calm Calm - N/A   Overcast